�������l�o���
Date,Time,MP-1(��Sv/h),MP-2(��Sv/h),MP-3(��Sv/h),MP-4(��Sv/h),MP-5(��Sv/h),MP-6(��Sv/h),MP-7(��Sv/h),����,����(m/s),���J
2017/05/03,00:00,0.378,0.230,0.396,0.364,0.328,0.191,0.165,��,3.8,��
2017/05/03,00:10,0.380,0.230,0.393,0.364,0.328,0.191,0.165,��,4.0,��
2017/05/03,00:20,0.382,0.230,0.393,0.364,0.330,0.192,0.166,��쐼,3.6,��
2017/05/03,00:30,0.379,0.230,0.392,0.364,0.329,0.192,0.166,��쐼,5.2,��
2017/05/03,00:40,0.381,0.230,0.394,0.363,0.329,0.192,0.165,��,5.9,��
2017/05/03,00:50,0.380,0.231,0.395,0.364,0.330,0.194,0.166,��,5.2,��
2017/05/03,01:00,0.377,0.230,0.394,0.365,0.331,0.193,0.164,��쐼,6.4,��
2017/05/03,01:10,0.380,0.230,0.395,0.364,0.329,0.192,0.167,��쐼,6.9,��
2017/05/03,01:20,0.381,0.230,0.396,0.363,0.331,0.192,0.166,��쐼,5.6,��
2017/05/03,01:30,0.380,0.231,0.394,0.363,0.330,0.192,0.165,��쐼,5.3,��
2017/05/03,01:40,0.380,0.230,0.393,0.363,0.329,0.192,0.165,��쐼,4.7,��
2017/05/03,01:50,0.381,0.230,0.395,0.364,0.330,0.192,0.166,�쐼,1.6,��
2017/05/03,02:00,0.380,0.229,0.395,0.365,0.330,0.192,0.166,��쐼,1.9,��
2017/05/03,02:10,0.380,0.229,0.394,0.364,0.330,0.192,0.166,�쐼,1.9,��
2017/05/03,02:20,0.381,0.230,0.394,0.364,0.329,0.191,0.166,�쐼,3.9,��
2017/05/03,02:30,0.379,0.228,0.393,0.363,0.329,0.192,0.166,�쐼,3.9,��
2017/05/03,02:40,0.379,0.229,0.395,0.364,0.330,0.192,0.165,�쐼,4.2,��
2017/05/03,02:50,0.379,0.230,0.393,0.362,0.327,0.192,0.164,�쐼,4.1,��
2017/05/03,03:00,0.380,0.230,0.393,0.362,0.330,0.192,0.165,�쐼,4.5,��
2017/05/03,03:10,0.379,0.228,0.395,0.364,0.329,0.192,0.166,���쐼,6.2,��
2017/05/03,03:20,0.380,0.230,0.394,0.363,0.328,0.191,0.166,���쐼,5.0,��
2017/05/03,03:30,0.381,0.230,0.393,0.362,0.330,0.191,0.166,���쐼,4.9,��
2017/05/03,03:40,0.379,0.229,0.393,0.362,0.330,0.193,0.165,���쐼,4.4,��
2017/05/03,03:50,0.381,0.229,0.394,0.363,0.328,0.191,0.165,���쐼,4.5,��
2017/05/03,04:00,0.379,0.230,0.394,0.363,0.328,0.191,0.165,���쐼,3.6,��
2017/05/03,04:10,0.381,0.230,0.393,0.363,0.330,0.193,0.165,�쐼,2.8,��
2017/05/03,04:20,0.379,0.230,0.395,0.363,0.329,0.193,0.165,�쐼,2.5,��
2017/05/03,04:30,0.379,0.228,0.394,0.362,0.328,0.191,0.165,�쐼,2.3,��
2017/05/03,04:40,0.378,0.230,0.393,0.363,0.330,0.192,0.165,��쐼,4.7,��
2017/05/03,04:50,0.380,0.229,0.394,0.363,0.330,0.192,0.166,��쐼,5.7,��
2017/05/03,05:00,0.379,0.229,0.393,0.364,0.327,0.193,0.166,�쐼,5.3,��
2017/05/03,05:10,0.381,0.228,0.394,0.362,0.329,0.191,0.166,�쐼,5.2,��
2017/05/03,05:20,0.380,0.230,0.392,0.362,0.328,0.192,0.164,�쐼,6.3,��
2017/05/03,05:30,0.378,0.229,0.393,0.363,0.328,0.191,0.164,�쐼,5.9,��
2017/05/03,05:40,0.379,0.229,0.394,0.363,0.329,0.192,0.164,�쐼,5.4,��
2017/05/03,05:50,0.381,0.227,0.393,0.362,0.328,0.192,0.164,�쐼,4.3,��
2017/05/03,06:00,0.378,0.229,0.393,0.362,0.327,0.192,0.163,�쐼,3.5,��
2017/05/03,06:10,0.378,0.229,0.393,0.364,0.328,0.192,0.164,�쐼,2.3,��
2017/05/03,06:20,0.380,0.229,0.393,0.363,0.327,0.192,0.163,��쐼,2.1,��
2017/05/03,06:30,0.380,0.230,0.393,0.362,0.328,0.192,0.164,�쐼,2.8,��
2017/05/03,06:40,0.380,0.229,0.393,0.362,0.329,0.191,0.163,��쐼,3.3,��
2017/05/03,06:50,0.379,0.229,0.393,0.361,0.327,0.191,0.165,��쐼,4.1,��
2017/05/03,07:00,0.378,0.228,0.391,0.362,0.329,0.192,0.164,��쐼,4.5,��
2017/05/03,07:10,0.380,0.229,0.392,0.361,0.327,0.190,0.164,��쐼,3.6,��
2017/05/03,07:20,0.378,0.227,0.389,0.361,0.330,0.192,0.164,��,1.7,��
2017/05/03,07:30,0.378,0.227,0.390,0.358,0.325,0.191,0.163,��,1.3,��
2017/05/03,07:40,0.378,0.226,0.388,0.361,0.329,0.191,0.165,��,2.2,��
2017/05/03,07:50,0.378,0.228,0.392,0.360,0.325,0.192,0.164,��,3.3,��
2017/05/03,08:00,0.377,0.227,0.390,0.360,0.329,0.190,0.164,��쓌,2.8,��
2017/05/03,08:10,0.379,0.228,0.395,0.361,0.326,0.192,0.164,��쓌,3.6,��
2017/05/03,08:20,0.375,0.228,0.393,0.359,0.328,0.191,0.164,��쓌,5.6,��
2017/05/03,08:30,0.380,0.227,0.392,0.364,0.327,0.193,0.165,��,5.9,��
2017/05/03,08:40,0.377,0.229,0.391,0.361,0.328,0.191,0.164,��,5.9,��
2017/05/03,08:50,0.379,0.228,0.394,0.359,0.327,0.192,0.164,��,6.1,��
2017/05/03,09:00,0.378,0.230,0.392,0.364,0.330,0.191,0.165,��,6.0,��
2017/05/03,09:10,0.375,0.228,0.394,0.361,0.325,0.192,0.163,��,8.3,��
2017/05/03,09:20,0.379,0.228,0.390,0.358,0.327,0.192,0.163,��,8.3,��
2017/05/03,09:30,0.377,0.228,0.393,0.361,0.328,0.190,0.165,��,8.7,��
2017/05/03,09:40,0.374,0.227,0.391,0.363,0.326,0.191,0.163,��,7.5,��
2017/05/03,09:50,0.380,0.227,0.394,0.360,0.329,0.190,0.164,��,8.7,��
2017/05/03,10:00,0.379,0.228,0.391,0.359,0.328,0.191,0.165,��,10.2,��
2017/05/03,10:10,0.376,0.227,0.394,0.364,0.324,0.192,0.164,��,11.4,��
2017/05/03,10:20,0.379,0.229,0.392,0.363,0.329,0.191,0.165,��,11.2,��
2017/05/03,10:30,0.380,0.228,0.389,0.358,0.328,0.192,0.164,��,11.5,��
2017/05/03,10:40,0.378,0.227,0.393,0.364,0.327,0.191,0.164,��,12.3,��
2017/05/03,10:50,0.378,0.229,0.391,0.363,0.329,0.191,0.165,��,12.5,��
2017/05/03,11:00,0.381,0.227,0.388,0.361,0.328,0.192,0.164,��,12.1,��
2017/05/03,11:10,0.378,0.228,0.388,0.360,0.326,0.190,0.165,��,12.6,��
2017/05/03,11:20,0.374,0.229,0.393,0.363,0.328,0.192,0.165,��,13.5,��
2017/05/03,11:30,0.377,0.227,0.393,0.363,0.329,0.192,0.163,��,13.2,��
2017/05/03,11:40,0.379,0.227,0.388,0.360,0.327,0.191,0.165,��,13.2,��
2017/05/03,11:50,0.377,0.229,0.388,0.362,0.328,0.193,0.165,��,11.8,��
2017/05/03,12:00,0.377,0.228,0.391,0.366,0.330,0.192,0.165,��,12.5,��
2017/05/03,12:10,0.380,0.228,0.393,0.362,0.327,0.191,0.165,��,12.7,��
2017/05/03,12:20,0.379,0.231,0.392,0.360,0.325,0.193,0.165,��,12.8,��
2017/05/03,12:30,0.376,0.229,0.389,0.364,0.330,0.192,0.165,��,12.0,��
2017/05/03,12:40,0.379,0.229,0.390,0.365,0.329,0.191,0.165,��,14.5,��
2017/05/03,12:50,0.379,0.229,0.395,0.361,0.325,0.192,0.165,��,13.5,��
2017/05/03,13:00,0.378,0.228,0.394,0.364,0.330,0.191,0.165,��,14.0,��
2017/05/03,13:10,0.381,0.229,0.390,0.365,0.329,0.190,0.164,��,14.4,��
2017/05/03,13:20,0.381,0.229,0.391,0.362,0.326,0.193,0.165,��,13.7,��
2017/05/03,13:30,0.379,0.228,0.395,0.362,0.329,0.191,0.164,��,17.1,��
2017/05/03,13:40,0.378,0.230,0.395,0.365,0.330,0.191,0.165,��,14.6,��
2017/05/03,13:50,0.380,0.229,0.392,0.363,0.327,0.192,0.166,��,14.4,��
2017/05/03,14:00,0.378,0.229,0.389,0.362,0.326,0.191,0.164,��,14.5,��
2017/05/03,14:10,0.378,0.230,0.393,0.366,0.330,0.192,0.166,��,13.3,��
2017/05/03,14:20,0.381,0.229,0.396,0.364,0.328,0.193,0.165,��,14.9,��
2017/05/03,14:30,0.379,0.228,0.393,0.361,0.326,0.192,0.165,��,14.7,��
2017/05/03,14:40,0.376,0.229,0.390,0.366,0.330,0.191,0.166,��,12.9,��
2017/05/03,14:50,0.381,0.229,0.392,0.366,0.329,0.192,0.165,��,11.9,��
2017/05/03,15:00,0.378,0.230,0.397,0.363,0.328,0.192,0.166,��,12.4,��
2017/05/03,15:10,0.379,0.229,0.393,0.368,0.329,0.193,0.164,��,12.5,��
2017/05/03,15:20,0.382,0.229,0.391,0.364,0.331,0.192,0.166,��,11.8,��
2017/05/03,15:30,0.378,0.230,0.395,0.365,0.327,0.191,0.166,��,13.3,��
2017/05/03,15:40,0.381,0.228,0.395,0.367,0.330,0.192,0.164,��쐼,12.3,��
2017/05/03,15:50,0.381,0.231,0.392,0.363,0.332,0.193,0.165,��쐼,12.9,��
2017/05/03,16:00,0.378,0.229,0.398,0.367,0.327,0.191,0.165,��쐼,14.2,��
2017/05/03,16:10,0.381,0.230,0.396,0.363,0.328,0.192,0.166,��쐼,12.3,��
2017/05/03,16:20,0.378,0.231,0.393,0.365,0.332,0.192,0.166,��쐼,11.2,��
2017/05/03,16:30,0.381,0.230,0.396,0.366,0.328,0.191,0.166,��쐼,9.2,��
2017/05/03,16:40,0.382,0.231,0.394,0.365,0.330,0.193,0.165,��쐼,8.6,��
2017/05/03,16:50,0.379,0.230,0.395,0.366,0.331,0.191,0.166,��쐼,11.0,��
2017/05/03,17:00,0.382,0.230,0.394,0.363,0.327,0.192,0.165,��쐼,10.8,��
2017/05/03,17:10,0.378,0.230,0.394,0.367,0.328,0.192,0.165,��쐼,13.4,��
2017/05/03,17:20,0.381,0.230,0.396,0.364,0.330,0.191,0.165,��쐼,13.7,��
2017/05/03,17:30,0.379,0.229,0.394,0.367,0.327,0.193,0.165,��쐼,15.0,��
2017/05/03,17:40,0.380,0.229,0.397,0.365,0.332,0.192,0.166,��쐼,12.0,��
2017/05/03,17:50,0.381,0.229,0.395,0.366,0.329,0.193,0.166,��쐼,11.3,��
2017/05/03,18:00,0.380,0.229,0.395,0.365,0.332,0.192,0.165,��쐼,11.8,��
2017/05/03,18:10,0.383,0.229,0.395,0.365,0.330,0.191,0.165,��쐼,12.3,��
2017/05/03,18:20,0.380,0.230,0.397,0.367,0.332,0.191,0.166,��쐼,7.4,��
2017/05/03,18:30,0.382,0.229,0.394,0.366,0.329,0.192,0.166,��쐼,8.6,��
2017/05/03,18:40,0.379,0.231,0.398,0.365,0.331,0.192,0.165,��쐼,10.0,��
2017/05/03,18:50,0.380,0.231,0.395,0.367,0.329,0.192,0.165,��쐼,9.5,��
2017/05/03,19:00,0.379,0.230,0.397,0.365,0.333,0.191,0.164,��쐼,11.5,��
2017/05/03,19:10,0.383,0.230,0.395,0.366,0.327,0.193,0.166,��쐼,12.5,��
2017/05/03,19:20,0.380,0.229,0.396,0.366,0.331,0.191,0.164,��쐼,11.0,��
2017/05/03,19:30,0.382,0.231,0.396,0.367,0.329,0.193,0.165,��쐼,11.0,��
2017/05/03,19:40,0.379,0.231,0.396,0.365,0.330,0.192,0.166,��쐼,11.6,��
2017/05/03,19:50,0.380,0.231,0.397,0.368,0.329,0.193,0.165,��쐼,9.6,��
2017/05/03,20:00,0.380,0.230,0.395,0.364,0.331,0.193,0.166,��쐼,7.8,��
2017/05/03,20:10,0.381,0.231,0.398,0.366,0.330,0.192,0.165,��쐼,8.8,��
2017/05/03,20:20,0.381,0.230,0.394,0.364,0.330,0.192,0.166,��쐼,9.5,��
2017/05/03,20:30,0.382,0.231,0.399,0.367,0.329,0.193,0.165,��쐼,10.4,��
2017/05/03,20:40,0.380,0.229,0.394,0.365,0.329,0.192,0.166,��쐼,10.0,��
2017/05/03,20:50,0.381,0.231,0.398,0.368,0.332,0.193,0.165,��쐼,10.5,��
2017/05/03,21:00,0.382,0.229,0.396,0.365,0.329,0.193,0.166,��쐼,10.1,��
2017/05/03,21:10,0.380,0.230,0.397,0.367,0.331,0.192,0.166,��쐼,9.8,��
2017/05/03,21:20,0.381,0.230,0.396,0.366,0.328,0.193,0.165,��쐼,9.9,��
2017/05/03,21:30,0.379,0.230,0.396,0.365,0.331,0.192,0.165,��쐼,10.4,��
2017/05/03,21:40,0.382,0.230,0.396,0.368,0.328,0.192,0.165,��쐼,10.2,��
2017/05/03,21:50,0.379,0.230,0.396,0.364,0.329,0.192,0.165,��쐼,8.2,��
2017/05/03,22:00,0.381,0.230,0.397,0.367,0.330,0.193,0.166,��쐼,7.9,��
2017/05/03,22:10,0.379,0.230,0.395,0.364,0.328,0.192,0.166,��쐼,8.7,��
2017/05/03,22:20,0.383,0.230,0.397,0.368,0.330,0.193,0.165,��쐼,8.0,��
2017/05/03,22:30,0.382,0.229,0.395,0.366,0.330,0.194,0.165,��쐼,8.2,��
2017/05/03,22:40,0.381,0.231,0.396,0.367,0.331,0.191,0.166,�쐼,7.2,��
2017/05/03,22:50,0.381,0.230,0.396,0.366,0.329,0.193,0.167,��쐼,7.1,��
2017/05/03,23:00,0.380,0.230,0.397,0.367,0.331,0.193,0.165,��쐼,7.0,��
2017/05/03,23:10,0.382,0.231,0.396,0.367,0.329,0.192,0.166,��쐼,7.4,��
2017/05/03,23:20,0.379,0.230,0.396,0.366,0.331,0.192,0.166,��쐼,8.7,��
2017/05/03,23:30,0.384,0.233,0.396,0.366,0.329,0.192,0.165,��쐼,6.8,��
2017/05/03,23:40,0.381,0.230,0.397,0.366,0.331,0.193,0.165,��쐼,6.9,��
2017/05/03,23:50,0.384,0.230,0.399,0.368,0.329,0.192,0.166,�쐼,6.4,��
